Weather History for Poughkeepsie, NY

Change the Weather History Date:

Saturday, January 10, 2015

  Actual Average Record
Temperature  
Mean Temperature 19 °F 25 °F  
Max Temperature 23 °F 35 °F 50 °F (1983)
Min Temperature 14 °F 16 °F -16 °F (1968)
Degree Days  
Heating Degree Days 46 40  
Month to date heating degree days 394 392  
Since 1 July heating degree days 2445 2721  
Cooling Degree Days 0 0  
Month to date cooling degree days 0 0  
Year to date cooling degree days 0 0  
Moisture  
Dew Point -1 °F    
Average Humidity 44    
Maximum Humidity 53    
Minimum Humidity 34    
Precipitation  
Precipitation 0.00 in 0.10 in 0.75 in (1950)
Month to date precipitation 0.81 1.02  
Year to date precipitation 0.81 1.02  
Sea Level Pressure  
Sea Level Pressure 30.40 in    
Wind  
Wind Speed 10 mph (WSW)    
Max Wind Speed 18 mph    
Max Gust Speed 26 mph    
Visibility 10 miles    
Events      
T = Trace of Precipitation, MM = Missing Value Source: NWS Daily Summary

Daily Weather History Graph

Daily Weather History Graph

Search for Another Location

Airport:

Trip Planner

Search our weather history database for the weather conditions in past years. The results will help you decide how hot, cold, wet, or windy it might be!

Date:

Astronomy

Jan. 10, 2015 Rise Set
Actual Time 7:21 AM EST 4:44 PM EST
Civil Twilight 6:50 AM EST 5:15 PM EST
Nautical Twilight 6:16 AM EST 5:49 PM EST
Astronomical Twilight 5:42 AM EST 6:23 PM EST
Moon 10:14 PM EST (1/10) 10:02 AM EST (1/10)
Length of Visible Light 10h 24m
Length of Day
9h 22m
Waning Gibbous, 75% of the Moon is Illuminated
Jan 10
Waning Gibbous
Jan 13
Last Quarter
Jan 20
New
Jan 26
First Quarter
Feb 3
Full

Hourly Weather History & Observations

Time (EST) Temp. Windchill Dew Point Humidity Pressure Visibility Wind Dir Wind Speed Gust Speed Precip Events Conditions
12:53 AM 19.9 °F 7.3 °F 3.0 °F 48% 30.20 in 10.0 mi West 12.7 mph - N/A   Clear
1:53 AM 19.0 °F 7.5 °F 1.9 °F 47% 30.22 in 10.0 mi West 10.4 mph - N/A   Clear
2:53 AM 18.0 °F 5.4 °F 1.9 °F 50% 30.25 in 10.0 mi WSW 11.5 mph - N/A   Clear
3:53 AM 17.1 °F 4.3 °F 1.0 °F 50% 30.26 in 10.0 mi WSW 11.5 mph - N/A   Clear
4:53 AM 15.1 °F 2.5 °F 1.0 °F 54% 30.29 in 10.0 mi WSW 10.4 mph - N/A   Clear
5:53 AM 16.0 °F 2.3 °F -0.0 °F 49% 30.31 in 10.0 mi WSW 12.7 mph - N/A   Clear
6:53 AM 15.1 °F -0.6 °F -0.9 °F 49% 30.33 in 10.0 mi West 16.1 mph - N/A   Clear
7:53 AM 15.1 °F 4.2 °F -2.0 °F 47% 30.39 in 10.0 mi SW 8.1 mph - N/A   Clear
8:53 AM 16.0 °F 1.7 °F -0.9 °F 47% 30.42 in 10.0 mi WSW 13.8 mph 19.6 mph N/A   Clear
9:53 AM 17.1 °F 3.6 °F -2.0 °F 43% 30.43 in 10.0 mi West 12.7 mph - N/A   Clear
10:53 AM 18.0 °F 9.8 °F -2.0 °F 41% 30.45 in 10.0 mi West 5.8 mph - N/A   Clear
11:53 AM 19.9 °F 10.1 °F -2.0 °F 38% 30.43 in 10.0 mi WSW 8.1 mph 18.4 mph N/A   Clear
12:53 PM 21.0 °F 10.6 °F -2.0 °F 36% 30.43 in 10.0 mi WSW 9.2 mph - N/A   Clear
1:53 PM 21.9 °F 11.0 °F -0.9 °F 37% 30.41 in 10.0 mi West 10.4 mph - N/A   Clear
2:53 PM 21.9 °F 9.8 °F -0.9 °F 37% 30.42 in 10.0 mi WSW 12.7 mph - N/A   Clear
3:53 PM 23.0 °F 13.9 °F -2.0 °F 34% 30.44 in 10.0 mi SW 8.1 mph 17.3 mph N/A   Clear
4:53 PM 19.9 °F 11.1 °F -2.0 °F 38% 30.45 in 10.0 mi West 6.9 mph - N/A   Clear
5:53 PM 19.9 °F 12.1 °F -2.0 °F 38% 30.45 in 10.0 mi West 5.8 mph - N/A   Clear
6:53 PM 19.0 °F 12.3 °F -2.0 °F 40% 30.46 in 10.0 mi SW 4.6 mph - N/A   Clear
7:53 PM 18.0 °F 6.1 °F -0.9 °F 44% 30.48 in 10.0 mi WSW 10.4 mph - N/A   Clear
8:53 PM 18.0 °F 4.8 °F -2.0 °F 41% 30.52 in 10.0 mi WSW 12.7 mph - N/A   Clear
9:53 PM 18.0 °F 6.9 °F -0.9 °F 44% 30.54 in 10.0 mi SW 9.2 mph - N/A   Clear
10:53 PM 18.0 °F 9.8 °F -0.9 °F 44% 30.55 in 10.0 mi SW 5.8 mph - N/A   Clear
11:53 PM 17.1 °F 5.8 °F -0.9 °F 45% 30.55 in 10.0 mi SW 9.2 mph - N/A   Clear